Powrót do katalogu

QIANFAN-35

AktywnyŁącznośćPO
NORAD 61568·PAYLOAD·🇨🇳 China

Wystrzelony Oct 15, 2024 z Taiyuan Satellite Launch Center

Loading…

Następne Przeloty (najbliższe 24 godziny)

TLE

ŚwieżeSource: Space-Track

Epoka: Sep 14, 2026, 21:18 UTC

1 61568U 24185S   26257.88774176  .00000521  00000-0  20290-3 0  9990
2 61568  88.9837  44.4711 0008567  97.0273 263.1897 14.28354497109593

Śledź QIANFAN-35 w czasie rzeczywistym z AllMySat

Download on the App Store